This is the latest recevied weather packets stored in our database for station/object VU3ZAG-WX. If no packets are shown the sender has not sent any weather packets the latest 10 day(s).
| Time | Temp. | Humidity | Pressure | Rain* | Wind** | Luminosity | Snow |
|---|---|---|---|---|---|---|---|
| 1777820445 | 34.44° C | 57% | 1008.8 hPa | - | - | - | - |
| 1777819840 | 34.44° C | 57% | 1008.7 hPa | - | - | - | - |
| 1777819235 | 34.44° C | 58% | 1008.6 hPa | - | - | - | - |
| 1777818629 | 34.44° C | 58% | 1008.4 hPa | - | - | - | - |
| 1777818023 | 34.44° C | 59% | 1008.3 hPa | - | - | - | - |
| 1777817417 | 34.44° C | 59% | 1008.1 hPa | - | - | - | - |
| 1777816812 | 35° C | 60% | 1008 hPa | - | - | - | - |
| 1777816206 | 35° C | 57% | 1007.9 hPa | - | - | - | - |
| 1777815600 | 35° C | 59% | 1007.8 hPa | - | - | - | - |
| 1777814995 | 35° C | 57% | 1007.7 hPa | - | - | - | - |
| 1777814389 | 35.56° C | 58% | 1007.6 hPa | - | - | - | - |
| 1777813784 | 35.56° C | 58% | 1007.5 hPa | - | - | - | - |
| 1777813178 | 35.56° C | 58% | 1007.4 hPa | - | - | - | - |
| 1777812573 | 36.11° C | 57% | 1007.4 hPa | - | - | - | - |
| 1777811967 | 36.11° C | 56% | 1007.3 hPa | - | - | - | - |
| 1777811362 | 36.67° C | 55% | 1007.2 hPa | - | - | - | - |
| 1777810756 | 36.67° C | 56% | 1007.1 hPa | - | - | - | - |
| 1777810150 | 36.67° C | 55% | 1007 hPa | - | - | - | - |
| 1777809545 | 37.22° C | 55% | 1007 hPa | - | - | - | - |
| 1777808334 | 37.78° C | 53% | 1006.9 hPa | - | - | - | - |
| 1777807122 | 37.78° C | 51% | 1006.9 hPa | - | - | - | - |
| 1777806516 | 37.78° C | 52% | 1006.9 hPa | - | - | - | - |
| 1777805907 | 37.78° C | 51% | 1006.9 hPa | - | - | - | - |
| 1777805301 | 37.78° C | 54% | 1007 hPa | - | - | - | - |
| 1777804692 | 38.33° C | 51% | 1007 hPa | - | - | - | - |
* Rain since midnight (hover to see other rain measurements)
** Current wind speed in m/s (hover to see current wind gust speed)